DW6794 Weather Reports


Display with metric or nautical units.
time (UTC)temp
F
wind
direction
speed
MPH
gust
MPH
rain 1hr
in
rain 24hr
in
rain mn
in
humidity
%
barometer
mb
20171019095715 36 99 0.0 0.0 0.00 0.00 0.00 78 1023.2
20171019085716 37 99 0.0 0.0 0.00 0.00 0.00 77 1023.2
20171019084716 37 99 0.0 0.0 0.00 0.00 0.00 77 1023.1
20171019082716 37 99 0.0 0.0 0.00 0.00 0.00 75 1023.0
20171019075716 38 99 0.0 0.0 0.00 0.00 0.00 76 1022.7
20171019071716 39 99 0.0 0.0 0.00 0.00 0.00 75 1022.7
20171019061716 40 99 0.0 0.0 0.00 0.00 0.00 76 1022.5
20171019055716 41 99 0.0 0.0 0.00 0.00 0.00 75 1022.6
20171019053717 41 98 0.0 0.0 0.00 0.00 0.00 74 1022.8
20171019051716 42 99 0.0 0.0 0.00 0.00 0.00 72 1022.8
20171019045716 43 99 0.0 0.0 0.00 0.00 0.00 72 1022.8
20171019042716 44 99 0.0 0.0 0.00 0.00 0.00 72 1022.7
20171019041717 45 99 0.0 0.0 0.00 0.00 0.00 72 1022.8
20171019032716 46 99 0.0 0.0 0.00 0.00 0.00 72 1023.1
20171019030716 47 99 0.0 0.0 0.00 0.00 0.00 70 1023.2
20171019024717 48 99 0.0 0.0 0.00 0.00 0.00 71 1023.0
20171019022716 48 99 0.0 0.0 0.00 0.00 0.00 69 1022.9
20171019020717 49 99 0.0 0.0 0.00 0.00 0.00 68 1022.8
20171019015718 49 99 0.0 0.0 0.00 0.00 0.00 69 1022.7
20171019013717 49 99 0.0 0.0 0.00 0.00 0.00 67 1022.7
20171019011717 50 99 0.0 0.0 0.00 0.00 0.00 63 1022.6
20171019010717 50 99 0.0 0.0 0.00 0.00 0.00 62 1022.6
20171018234717 57 99 0.0 0.0 0.00 0.00 0.00 53 1022.1
20171018214717 71 99 0.0 0.0 0.00 0.00 0.00 44 1021.5
20171018212718 71 99 0.0 0.0 0.00 0.00 0.00 45 1021.8
20171018210717 71 99 0.0 0.0 0.00 0.00 0.00 46 1021.8
20171018204717 71 99 0.0 2.0 0.00 0.00 0.00 46 1021.9
20171018202718 71 99 0.0 0.0 0.00 0.00 0.00 47 1021.9
20171018201718 71 99 0.0 2.0 0.00 0.00 0.00 50 1021.9
20171018200718 70 99 2.0 5.0 0.00 0.00 0.00 49 1022.0
20171018195718 69 99 1.0 7.0 0.00 0.00 0.00 48 1022.0
20171018194718 69 77 3.0 5.0 0.00 0.00 0.00 48 1022.3
20171018185718 68 63 2.0 5.0 0.00 0.00 0.00 52 1022.8
20171018182718 68 229 2.0 5.0 0.00 0.00 0.00 57 1023.1
20171018155710 60 60 3.0 5.0 0.00 0.00 0.00 68 1025.5
20171018154709 59 59 1.0 3.0 0.00 0.00 0.00 73 1025.6
20171018153709 58 59 3.0 5.0 0.00 0.00 0.00 71 1025.8
20171018142710 51 31 0.0 0.0 0.00 0.00 0.00 80 1025.9
20171018135710 47 31 0.0 0.0 0.00 0.00 0.00 81 1026.0
20171018131710 42 31 0.0 0.0 0.00 0.00 0.00 81 1026.1
20171018113710 34 31 0.0 0.0 0.00 0.00 0.00 77 1025.1